Vorticity
nan nan nan nan nan nan nan nan nan nan nan nan nan nan nan nan nan nan nan nan nan nan nan nan nan nan nan nan nan nan nan nan nan nan nan nan nan nan nan nan nan nan nan
nan 7 7 7 7 7 8 7 7 7 7 7 7 8 8 7 8 8 7 2 3 7 3 3 7 7 7 7 7 8 8 7 9 9 10 11 9 7 6 7 9 8 nan
nan 7 6 7 7 7 7 7 7 7 7 7 8 8 8 8 8 8 8 7 3 -1 1 5 8 9 8 8 9 8 7 8 8 8 9 9 9 7 9 11 8 6 nan
nan 7 7 7 7 8 7 7 7 8 7 7 8 8 8 8 7 8 8 8 6 3 1 2 7 8 8 8 8 8 9 8 9 10 10 7 7 11 10 8 9 9 nan
nan 7 7 7 7 7 7 8 8 8 7 6 8 9 8 8 7 8 8 6 6 7 4 1 6 10 7 5 6 9 10 10 10 10 9 7 7 8 9 9 10 9 nan
nan 7 7 8 7 7 7 8 8 9 7 6 9 10 10 9 9 7 6 7 8 8 5 8 11 5 4 5 7 8 10 11 11 11 9 8 7 6 7 8 8 8 nan
nan 7 7 7 7 7 7 8 9 8 7 9 11 10 9 11 9 2 7 11 8 6 6 9 7 7 5 6 9 7 9 10 10 11 12 11 11 11 8 6 7 7 nan
nan 7 8 7 7 6 7 8 9 10 8 8 11 9 7 9 7 9 9 9 8 6 6 6 7 6 8 11 3 5 10 9 9 11 11 13 13 11 10 9 7 8 nan
nan 8 8 8 7 7 7 7 7 8 10 7 9 10 8 7 8 10 9 9 4 6 8 9 7 8 8 6 6 7 5 7 8 11 11 10 11 11 14 14 9 9 nan
nan 8 8 8 7 7 7 8 8 7 8 8 9 9 10 6 5 9 9 6 3 7 10 9 9 8 8 7 6 6 6 9 10 9 10 10 11 11 11 13 14 14 nan
nan 8 8 8 7 8 7 7 7 8 8 8 7 7 10 10 8 6 6 5 7 10 9 7 9 9 9 9 8 4 4 7 10 10 11 12 12 13 10 7 12 18 nan
nan 8 8 7 7 7 7 8 8 8 8 8 8 8 8 8 8 7 5 4 11 9 11 11 10 8 9 8 3 0 8 9 8 8 11 13 13 13 12 11 10 10 nan
nan 9 8 7 8 8 8 8 8 8 9 8 7 8 9 8 8 7 7 9 8 10 9 9 9 8 9 9 4 3 11 6 8 9 10 12 14 15 13 11 11 9 nan
nan 10 8 8 8 8 8 8 8 9 9 7 8 8 9 9 8 8 7 6 11 10 4 11 10 10 8 7 0 11 14 5 7 8 8 10 14 15 14 14 11 9 nan
nan 10 9 8 8 8 8 8 8 8 8 9 10 9 9 9 9 9 9 9 7 2 8 13 7 6 7 7 8 13 7 4 5 8 9 10 10 11 15 13 12 14 nan
nan 10 8 8 7 8 8 8 8 8 8 9 9 9 8 8 9 9 9 9 8 6 4 5 6 7 8 7 8 10 7 10 15 9 8 9 10 9 9 10 12 15 nan
nan 9 8 8 8 8 8 8 8 8 8 8 9 9 8 9 8 8 9 8 9 9 8 3 7 8 8 8 10 11 12 17 12 6 7 10 11 10 8 10 14 16 nan
nan 9 8 8 8 8 9 8 8 9 9 8 8 9 8 8 7 9 9 8 9 9 7 6 9 10 9 10 11 11 12 11 8 6 7 8 10 10 10 11 12 12 nan
nan 9 9 8 8 8 8 9 9 9 9 9 9 9 9 7 7 8 8 9 10 9 9 11 8 9 10 10 13 12 10 12 9 9 12 14 11 9 10 10 13 18 nan
nan 8 8 8 8 9 10 10 9 9 9 10 10 9 9 7 4 6 11 10 9 9 10 8 8 9 9 10 10 9 11 10 10 15 16 16 16 18 17 15 18 19 nan
nan 9 8 8 9 10 9 8 8 10 10 10 10 9 9 4 5 7 8 6 7 10 9 10 11 9 8 8 8 11 10 9 9 13 15 12 18 19 17 20 14 12 nan
nan 9 8 8 8 9 6 7 11 13 10 9 9 10 8 9 10 8 4 6 9 6 6 8 9 8 6 8 9 8 9 7 11 12 6 9 13 10 12 13 5 10 nan
nan 8 8 9 9 8 8 9 11 14 11 9 8 9 10 8 10 14 10 12 12 10 11 11 10 10 9 7 8 10 9 7 10 8 12 11 11 12 9 5 8 15 nan
nan 9 9 8 9 8 8 9 14 13 9 9 10 10 9 8 7 4 13 18 16 15 13 6 6 7 6 6 7 8 9 13 12 10 12 13 12 9 9 10 20 25 nan
nan 9 9 9 9 8 7 10 15 13 9 10 10 10 7 5 1 9 15 12 12 10 7 7 11 10 9 11 11 14 11 10 10 10 15 13 7 13 16 17 23 20 nan
nan nan nan nan nan nan nan nan nan nan nan nan nan nan nan nan nan nan nan nan nan nan nan nan nan nan nan nan nan nan nan nan nan nan nan nan nan nan nan nan nan nan nan
CAPE
0 0 0 0 0 0 0 0 0 0 0 0 0 0 0 0 0 0 0 0 0 0 0 1 4 7 13 17 19 21 24 22 25 20 17 17 10 1 0 1 3 4 3
0 0 0 0 0 0 0 0 0 0 0 0 0 0 0 0 0 0 0 0 0 0 0 0 0 0 3 11 17 22 19 17 27 30 36 32 21 19 11 3 5 6 5
0 0 0 0 0 0 0 0 0 0 0 0 0 0 0 0 0 0 0 0 0 0 0 0 0 0 2 7 8 19 27 25 36 29 43 38 40 40 50 44 16 11 10
0 0 0 0 0 0 0 0 0 0 0 0 0 0 0 0 0 0 0 0 0 0 0 0 0 0 0 2 16 21 19 24 31 43 37 37 55 62 55 64 40 49 33
0 0 0 0 0 0 0 0 0 0 0 0 0 0 0 0 0 0 0 0 0 0 0 0 0 0 0 5 14 24 31 34 36 46 56 68 82 86 104 90 90 58 45
0 0 0 0 0 0 0 0 0 0 0 0 0 0 0 0 0 0 0 0 0 0 0 0 0 0 0 3 13 22 30 35 41 46 54 66 65 69 87 103 97 86 75
0 0 0 0 0 0 0 0 0 0 0 0 0 0 0 0 0 0 0 0 0 0 0 0 0 0 0 0 2 5 25 54 69 77 80 86 94 91 76 100 86 97 84
0 0 0 0 0 0 0 0 0 0 0 0 0 0 0 0 0 0 0 0 0 0 0 0 0 0 0 0 0 9 16 44 57 76 105 134 131 128 117 95 86 107 108
0 0 0 0 0 0 0 0 0 0 0 0 0 0 0 0 0 0 0 0 0 0 0 0 0 0 0 0 0 0 9 32 64 91 129 152 151 173 147 129 118 101 63
0 0 0 0 0 0 0 0 0 0 0 0 0 0 0 0 0 0 0 0 0 0 0 0 0 0 0 0 0 0 8 27 65 111 134 155 192 219 230 289 246 173 147
0 0 0 0 0 0 0 0 0 0 0 0 0 0 0 0 0 0 0 0 0 0 0 0 0 0 0 0 0 0 4 48 100 122 162 196 213 268 283 343 289 291 280
0 0 0 0 0 0 0 0 0 0 0 0 0 0 0 0 0 0 0 0 0 0 0 0 0 0 0 0 0 0 12 47 91 129 164 177 197 220 255 243 329 289 238
0 0 0 0 0 0 0 0 0 0 0 0 0 0 0 0 0 0 0 0 0 0 0 0 0 0 0 0 0 0 10 29 53 98 147 176 166 147 125 132 118 146 159
0 0 0 0 0 0 0 0 0 0 0 0 0 0 0 0 0 0 0 0 0 0 0 0 0 0 0 0 0 2 0 4 23 57 100 111 106 104 104 88 65 67 92
0 0 0 0 0 0 0 0 0 0 0 0 0 0 0 0 0 0 0 0 0 0 0 0 0 0 0 0 0 0 0 2 23 31 35 39 60 74 117 114 106 85 62
0 0 0 0 0 0 0 0 0 0 0 0 0 0 0 0 0 0 0 0 0 2 1 0 0 0 0 0 0 0 0 7 6 15 28 30 20 44 79 83 76 73 68
0 0 0 0 0 0 0 0 0 0 0 0 0 0 0 0 0 0 0 0 1 3 3 0 0 0 0 0 0 0 0 0 0 8 20 29 36 40 53 62 61 71 56
0 0 0 0 0 0 0 0 0 0 0 0 0 0 0 0 0 0 0 0 1 0 2 1 0 0 0 1 0 0 0 0 0 1 23 29 33 44 55 56 58 57 39
0 0 0 0 0 0 0 0 0 0 0 0 0 0 0 0 0 0 0 0 0 2 0 3 0 0 1 1 0 0 0 0 0 9 16 20 35 35 49 61 64 58 39
0 0 0 0 0 0 0 0 0 0 0 0 0 0 0 0 0 0 0 0 0 0 0 1 0 1 0 0 0 0 3 0 1 0 6 14 27 35 44 49 51 31 27
0 0 0 0 0 0 0 0 0 0 0 0 0 0 0 0 6 12 13 7 7 12 8 2 1 0 3 2 1 0 2 4 3 2 1 0 2 2 5 23 29 28 23
0 0 0 0 0 0 0 1 1 0 0 0 0 0 0 0 0 11 21 18 11 11 10 18 11 10 9 0 4 4 3 8 6 1 0 0 0 0 3 4 17 28 28
0 0 0 0 0 0 0 3 5 0 0 0 0 0 0 0 0 0 0 18 21 34 45 27 10 9 1 0 0 0 5 9 7 4 2 2 0 0 0 4 11 15 19
0 0 0 0 0 0 0 3 5 0 0 0 0 0 0 0 0 10 2 0 0 0 1 10 14 21 5 0 1 1 4 9 4 0 0 0 0 0 0 0 4 5 7
0 0 0 0 0 0 0 3 3 0 0 0 0 0 0 1 9 23 20 13 0 0 0 6 12 27 43 40 29 21 1 2 2 1 1 0 0 0 0 0 0 1 1
0 0 0 0 0 0 0 3 2 0 0 0 0 0 1 2 22 41 6 1 0 0 0 2 4 0 4 0 6 0 0 2 2 2 0 1 0 0 0 0 0 0 0